sat.trackr.live / text

‹ back to catalog

STARLINK-34224

NORAD 64251 · 2025-119U

PAYLOAD ACTIVE UNKNOWN

§ Identity

Operator
Country
US
Launch date
2025-06-03
Launch site
AFETR
Launch vehicle
Mass (kg)
RCS (m²)

Purposes: comms

External: N2YO · Heavens-Above · Gunter

§ Orbital elements

Epoch: 2026-05-24T22:33:41.539104Z

Period
94.27 min
Inclination
42.9960°
Eccentricity
0.0001184
Mean motion
15.27588153 rev/d
Perigee alt
482.2 km
Apogee alt
483.8 km
Semi-major
6,861.2 km
B*
7.4526e-4
RAAN
236.1853°
Arg perigee
272.9916°
Mean anomaly
87.0800°
Rev number
5,583

§ Raw data

STARLINK-342241 64251U 25119U   26144.94006411  .00020308  00000+0  74526-3 0  99972 64251  42.9960 236.1853 0001184 272.9916  87.0800 15.27588153 55837

JSON: /api/v1/satellites/64251 · /tle

For live sub-satellite position, see the globe view (requires WebGL).

§ Visibility from observer

Set your observer location to see the next 7 days of passes ≥ 10°. The values pass through the URL so the page stays shareable.

No JS? Fill the form by hand. The geolocation button needs JavaScript.